Regional Weather Roundup
Issued by NWS

Home | Current Version | Previous Version | Text Only | Print | Product List | Glossary Off
Versions: 1 2 3 4 5 6 7 8 9 10 11 12 13 14 15 16 17 18 19 20 21 22 23 24 25 26 27 28 29 30 31 32 33 34 35 36 37 38 39 40 41 42 43 44 45 46 47 48 49 50

386
ASUS43 KMPX 210310
RWRMN
WEATHER ROUNDUP FOR MINNESOTA
NATIONAL WEATHER SERVICE TWIN CITIES/CHANHASSEN MN
900 PM CST FRI JAN 20 2017


NOTE: "FAIR" INDICATES FEW OR NO CLOUDS BELOW 12,000 FEET WITH NO
SIGNIFICANT WEATHER AND/OR OBSTRUCTIONS TO VISIBILITY. N/A MEANS
CURRENT SKY AND/OR WEATHER CONDITIONS ARE NOT AVAILABLE.

MNZ060>063-068>070-210400-
   Twin Cities Metro

CITY           SKY/WX    TMP DP  RH WIND       PRES   REMARKS
TWIN CITIES    FOG       35  34  96 SE8       29.57R VSB 1   WCI  29
ST PAUL        CLOUDY    35  35 100 SE7       29.58S FOG     WCI  29
CRYSTAL        CLOUDY    36  33  89 SE8       29.55S FOG
BLAINE         FOG       37  37 100 SE6       29.56R VSB 1
LAKEVILLE      CLOUDY    34  34 100 SE3       29.56S FOG
EDEN PRAIRIE   CLOUDY    36  34  92 SE8       29.55S FOG
SOUTH ST PAUL  FOG       36  35  99 SE3       29.57S VSB 3/4
LAKE ELMO      FOG       36  36 100 SE5       29.58R VSB 3/4
$$
MNZ001>005-007-008-013>017-022>024-027-028-210400-
   Northwest Minnesota

CITY           SKY/WX    TMP DP  RH WIND       PRES   REMARKS
BEMIDJI        CLOUDY    33  33 100 SE10      29.50S WCI  25
HALLOCK        CLOUDY    36  36 100 SE13      29.46S
ROSEAU         CLOUDY    36  30  80 SE7       29.49S HAZE
WARROAD        LGT RAIN  34  30  86 E6        29.50F WCI  29
THIEF RVR FALL CLOUDY    34  33  96 SE17      29.47F WCI  23
CROOKSTON      CLOUDY    36  36 100 SE14      29.46S
FOSSTON        CLOUDY    34  32  93 E9        29.48S FOG     WCI  26
DETROIT LAKES  CLOUDY    34  34 100 SE13      29.47S FOG     WCI  25
MOORHEAD       CLOUDY    36  34  93 SE7       29.44F
PARK RAPIDS    CLOUDY    34  32  92 SE9       29.49S FOG     WCI  27
MAHNOMEN       CLOUDY    34  33  96 SE9       29.46S WCI  27
$$
MNZ006-009>011-018-025>026-210400-
   North Central Minnesota

CITY           SKY/WX    TMP DP  RH WIND       PRES   REMARKS
BAUDETTE       MIX PCPN  34  33  96 SE8       29.51F WCI  27
FLAG ISLAND    LGT RAIN  34  34 100 SE6       29.51F WCI  29
INTL FALLS     LGT RAIN  35  33  92 SE12      29.55F WCI  27
WASKISH        CLOUDY    36  36 100 SE7       29.52S
BIG FORK       LGT SNOW  36  34  93 SE3       29.54S
LONGVILLE      CLOUDY    34  34 100 SE3       29.52S FOG
GRAND RAPIDS   CLOUDY    34  33  96 VRB5      29.55F FOG     WCI  30
CRANE LAKE     LGT RAIN  32  32 100 CALM      29.60S VSB 3/4
ORR            LGT SNOW  32  30  93 CALM      29.54F
COOK           LGT SNOW  32  32 100 E3        29.57S
WALKER         CLOUDY    33  33  99 SE5       29.51S FOG     WCI  29
$$
MNZ012-019>021-037-210400-
   Northeast Minnesota

CITY           SKY/WX    TMP DP  RH WIND       PRES   REMARKS
DULUTH         FOG       35  34  96 E9        29.56F VSB 1/4 WCI  28
ELY            LGT RAIN  34  34 100 E3        29.58F
HIBBING        CLOUDY    32  32 100 SE9       29.56S FOG     WCI  24
EVELETH        MIX PCPN  32  32  99 E3        29.58S
DULUTH HARBOR  CLOUDY    34  34 100 E12       29.60F FOG     WCI  25
TWO HARBORS    DRIZZLE   37  34  87 E6        29.58S
SILVER BAY     LGT RAIN  36  36 100 E6        29.59S VSB 1/4
GRAND MARAIS     N/A     35  34  96 NE7       29.65S WCI  29
G MARAIS ARPRT RAIN      32  28  86 CALM      29.61F
$$
MNZ029>031-032-039>041-046>048-054>057-064-210400-
   West Central Minnesota

CITY           SKY/WX    TMP DP  RH WIND       PRES   REMARKS
FERGUS FALLS   CLOUDY    36  36 100 SE14      29.49S
WHEATON        CLOUDY    43  43 100 SE16      29.45F FOG
MORRIS         MIX PCPN  34  34 100 SE16      29.45F WCI  23
ALEXANDRIA     CLOUDY    34  33  96 SE10      29.48F FOG     WCI  26
ELBOW LAKE     CLOUDY    34  34 100 SE13      29.46S FOG     WCI  25
WADENA         LGT RAIN  34  34 100 SE8       29.49S WCI  27
GLENWOOD       MIX PCPN  34  34 100 SE9       29.49F VSB 3/4 WCI  26
APPLETON       CLOUDY    36  34  93 SE12      29.47S FOG
BENSON         CLOUDY    37  34  87 S12G17    29.49F
ORTONVILLE     CLOUDY    34  32  93 SE16      29.44F FOG     WCI  23
MADISON        LGT SNOW  37  37 100 SE16      29.45F
WILLMAR        MIX PCPN  36  36 100 SE12      29.51F
$$
MNZ033>034-036-042>043-049>051-058-059-210400-
   Central Minnesota

CITY           SKY/WX    TMP DP  RH WIND       PRES   REMARKS
ST CLOUD       FOG       34  34 100 SE6       29.54R VSB 1/4 WCI  29
SAUK CENTRE    CLOUDY    33  33 100 E8        29.51R FOG     WCI  26
PAYNESVILLE    FOG       34  34 100 SE8       29.51F VSB 3/4 WCI  27
AITKIN         CLOUDY    37  34  87 CALM      29.52S
PINE RIVER     CLOUDY    34  34 100 SE8       29.56S FOG     WCI  27
BRAINERD       CLOUDY    34  34 100 SE6       29.53S FOG     WCI  29
STAPLES        FOG       34  34 100 SE3       29.51S VSB 3/4
LONG PRAIRIE   LGT SNOW  32  32 100 E3        29.51S VSB 3/4
LITTLE FALLS   MIX PCPN  34  32  93 SE6       29.53S WCI  29
LITCHFIELD     FOG       36  36 100 SE6       29.53S VSB 1
BUFFALO        CLOUDY    35  34  96 SE7       29.55S FOG     WCI  29
MAPLE LAKE     FOG       35  35 100 MISG      29.55S VSB 1
HUTCHINSON     DRZL/FOG  35  35 100 SE8       29.54S VSB 1/2 WCI  28
$$
MNZ037-044-045-052-053-210400-
   East Central Minnesota

CITY           SKY/WX    TMP DP  RH WIND       PRES   REMARKS
PRINCETON      FOG       36  36 100 E5        29.56R VSB 1/2
MORA           FOG       34  32  93 SE3       29.58R VSB 1
CAMBRIDGE      CLOUDY    37  36  93 SE5       29.55R FOG
RUSH CITY      CLOUDY    34  34 100 SE5       29.57R FOG     WCI  30
MOOSE LAKE     CLOUDY    34  34 100 CALM      29.54F
HINCKLEY       CLOUDY    34  34 100 SE3       29.56S FOG
CLOQUET        FOG       34  34 100 E5        29.56S VSB 1/2 WCI  30
MCGREGOR       CLOUDY    34  34 100 E5        29.54F WCI  30
$$
MNZ071>073-080-081-089-090-097-098-210400-
   Southwest Minnesota

CITY           SKY/WX    TMP DP  RH WIND       PRES   REMARKS
MONTEVIDEO     CLOUDY    34  34 100 S12       29.49F FOG     WCI  25
GRANITE FALLS  CLOUDY    36  36  99 E13       29.50F FOG
CANBY          CLOUDY    37  36  99 E8        29.46S FOG
MARSHALL       CLOUDY    35  35 100 SE12      29.47F FOG     WCI  27
REDWOOD FALLS  FOG       35  33  92 SE10      29.50F VSB 1   WCI  27
OLIVIA         FOG       34  34 100 SE9       29.50F VSB 1   WCI  26
PIPESTONE      FOG       36  36 100 SE7       29.43F VSB 1/4
WINDOM         CLOUDY    36  36 100 E6        29.47F FOG
WORTHINGTON    FOG       34  34 100 E8        29.46F VSB 1/2 WCI  27
JACKSON        FOG       32  32 100 E9        29.48F VSB 1/2 WCI  24
TRACY          CLOUDY    37  37 100 SE7       29.47F FOG
SLAYTON        FOG       34  34 100 SE9       29.47S VSB 3/4 WCI  26
$$
MNZ065>067-074>077-082>085-091>093-210400-
   South Central Minnesota

CITY           SKY/WX    TMP DP  RH WIND       PRES   REMARKS
MANKATO        MIX PCPN  34  33  96 SE10      29.53F FOG     WCI  26
NEW ULM        CLOUDY    34  34 100 SE8       29.51F FOG     WCI  27
ST JAMES       FOG       34  34 100 E7        29.52F VSB 3/4 WCI  28
FAIRMONT       LGT RAIN  34  34 100 SE7       29.51F VSB 3/4 WCI  28
GLENCOE        CLOUDY    35  35 100 SE7       29.53F FOG     WCI  29
FARIBAULT      CLOUDY    36  34  93 SE7       29.55F FOG
OWATONNA       CLOUDY    36  34  93 SE5       29.54F FOG
WASECA         FOG       34  34 100 E7        29.55F VSB 1/2 WCI  28
ALBERT LEA     FOG       34  34 100 SE8       29.53S VSB 1/4 WCI  27
$$
MNZ078>079-086>088-094>096-210400-
   Southeast Minnesota

CITY           SKY/WX    TMP DP  RH WIND       PRES   REMARKS
ROCHESTER      FOG       33  33 100 SE8       29.56S VSB 1/2 WCI  26
RED WING       FOG       36  34  93 SE7       29.58S VSB 3/4
STANTON        CLOUDY    37  34  92 SE7       29.55S FOG
DODGE CENTER   FOG       34  34 100 CALM      29.54F VSB 3/4
WINONA         CLOUDY    34  34 100 SE3       29.60F FOG
AUSTIN         FOG       34  34 100 SE6       29.54F VSB 1   WCI  29
PRESTON        FOG       33  33  97 SE5       29.57S VSB 1/4 WCI  29
$$
ABBREVIATIONS USED IN REMARKS
   TC - TEMPERATURES IN CELSIUS
  WCI - WIND CHILL INDEX
   HX - HEAT INDEX
  VSB - VISIBILITY
$$




USA.gov is the U.S. government's official web portal to all federal, state and local government web resources and services.